{"data":{"norad_id":66521,"epoch":"2026-09-20T16:16:04.256256Z","epoch_age_seconds":73624,"freshness":"FRESH","line1":"1 66521U 25265F   26263.67782704  .00006209  00000+0  23491-3 0  9998","line2":"2 66521  42.9973 256.8060 0001054 274.6938  85.3793 15.27585112 46936","mean_motion":15.27585112,"eccentricity":0.0001054,"inclination_deg":42.9973,"raan_deg":256.806,"arg_perigee_deg":274.6938,"mean_anomaly_deg":85.3793,"bstar":0.00023491,"rev_number":4693,"period_min":94.2664332539,"perigee_km":482.31062151416,"apogee_km":483.75695631646,"semimajor_km":6861.1707889153,"source":"CELESTRAK","updated_at":"2026-09-21T09:00:35.926336Z"}}